Tracking 18840 objects as of 17-November-2017
HD Live streaming from Space Station
objects crossing your sky now

GLOBALSTAR M045

Track GLOBALSTAR M045 now!
10-day predictions
GLOBALSTAR M045 is classified as:


NORAD ID: 25676
Int'l Code: 1999-019A
Perigee: 1,569.1 km
Apogee: 1,570.0 km
Inclination: 52.0 °
Period: 117.4 minutes
Semi major axis: 7940 km
RCS: 2.6523 m2 (large)
Launch date: April 15, 1999
Source: Globalstar (GLOB)
Launch site: TYURATAM MISSILE AND SPACE COMPLEX (TTMTR)
aabbcc
Your satellite tracking list
Your tracking list is empty




NASA's NSSDC Master Catalog

Two Line Element Set (TLE):
1 25676U 99019A   17320.63985411 -.00000087  00000-0  53718-4 0  9998
2 25676  51.9971 278.0613 0000590 358.6596  51.9378 12.26947165853656
Source of the keplerian elements: AFSPC